Location: Salillas
(41.9950°N, 0.2228°W)
Time: 03:41:19
(UTC+00:00)

HJ-1C - Pass Details

Date: 29 March 2020
Orbit: 431 x 447 km, 97.2° (Epoch: 31 May)

Event Time Altitude Azimuth Distance (km) Brightness Sun altitude
Rises 19:08:13 0° 169° (S) 2,411 6.9 -9.0°
Reaches altitude 10° 19:10:13 10° 170° (S) 1,550 5.9 -9.4°
Maximum altitude 19:13:32 81° 256° (WSW) 453 3.5 -10.0°
Drops below altitude 10° 19:16:55 10° 346° (NNW) 1,573 6.5 -10.6°
Sets 19:18:57 0° 348° (NNW) 2,452 7.5 -10.9°
